W4AK Weather Reports


time (UTC)temp
C
wind
direction
speed
KPH
gust
KPH
rain 1hr
cm
rain 24hr
cm
rain mn
cm
humidity
%
barometer
mb
20260906093250 21 17 0.0 8.0 0.00 0.00 0.00 97 1055.6
20260906093232 21 357 0.0 8.0 0.00 0.00 0.00 98 1055.6
20260906092509 21 5 1.6 6.4 0.00 0.00 0.00 98 1055.6
20260906091749 21 343 4.8 6.4 0.00 0.00 0.00 98 1055.6
20260906091248 21 12 1.6 4.8 0.00 0.00 0.00 98 1055.6
20260906090747 21 342 1.6 4.8 0.00 0.00 0.00 98 1055.6
20260906090247 21 356 1.6 4.8 0.00 0.00 0.00 98 1056.0
20260906085747 21 85 1.6 4.8 0.00 0.00 0.00 98 1055.6
20260906085246 21 355 1.6 4.8 0.00 0.00 0.00 98 1055.6
20260906084745 21 160 0.0 4.8 0.00 0.00 0.00 98 1055.6
20260906084245 21 350 0.0 4.8 0.00 0.00 0.00 98 1055.6
20260906083745 21 0 0.0 6.4 0.00 0.00 0.00 98 1055.6
20260906083245 21 133 1.6 9.7 0.00 0.00 0.00 98 1055.6
20260906082744 21 348 4.8 9.7 0.00 0.00 0.00 98 1055.6
20260906082243 21 356 3.2 8.0 0.00 0.00 0.00 98 1056.0
20260906081743 21 11 1.6 3.2 0.00 0.00 0.00 98 1055.6
20260906081243 21 340 3.2 3.2 0.00 0.00 0.00 98 1055.3
20260906080742 22 351 1.6 3.2 0.00 0.00 0.00 97 1055.3
20260906080242 21 61 1.6 3.2 0.00 0.00 0.00 97 1055.3
20260906075741 21 49 1.6 1.6 0.00 0.00 0.00 98 1055.3
20260906075241 21 19 0.0 1.6 0.00 0.00 0.00 98 1055.3
20260906074740 21 145 0.0 3.2 0.00 0.00 0.00 97 1055.3
20260906074500 21 140 1.6 3.2 0.00 0.00 0.00 97 1055.3
20260906073739 21 63 0.0 3.2 0.00 0.00 0.00 97 1055.0
20260906073240 21 135 0.0 3.2 0.00 0.00 0.00 98 1055.3
20260906072739 21 153 0.0 4.8 0.00 0.00 0.00 98 1055.0
20260906072238 21 121 1.6 4.8 0.00 0.00 0.00 98 1055.0
20260906071738 21 152 3.2 3.2 0.00 0.00 0.00 98 1055.0
20260906071720 21 131 1.6 1.6 0.00 0.00 0.00 97 1055.0
20260906070737 21 62 0.0 1.6 0.00 0.00 0.00 97 1055.0
20260906070237 21 47 0.0 3.2 0.00 0.00 0.00 97 1055.0
20260906065737 21 62 0.0 3.2 0.00 0.00 0.00 97 1055.3
20260906065458 21 54 0.0 3.2 0.00 0.00 0.00 97 1055.3
20260906064956 21 37 1.6 3.2 0.00 0.00 0.00 97 1055.3
20260906064235 21 24 0.0 3.2 0.00 0.00 0.00 97 1055.6
20260906063735 21 8 3.2 3.2 0.00 0.00 0.00 98 1055.6
20260906063234 21 356 1.6 3.2 0.00 0.00 0.00 98 1055.6
20260906062734 21 354 1.6 3.2 0.00 0.00 0.00 98 1056.0
20260906062458 21 7 1.6 3.2 0.00 0.00 0.00 97 1056.0
20260906061733 21 0 1.6 3.2 0.00 0.00 0.00 97 1056.0
20260906061232 21 357 0.0 3.2 0.00 0.00 0.00 97 1055.6
20260906060733 21 343 0.0 1.6 0.00 0.00 0.00 97 1055.6
20260906060232 21 5 0.0 1.6 0.00 0.00 0.00 97 1055.6
20260906055731 21 39 1.6 1.6 0.00 0.00 0.00 97 1055.6
20260906055232 21 57 0.0 1.6 0.00 0.00 0.00 97 1055.6
20260906054731 21 89 0.0 1.6 0.00 0.00 0.00 97 1055.6
20260906054230 21 72 0.0 3.2 0.00 0.00 0.00 97 1055.6
20260906053730 21 34 0.0 3.2 0.00 0.00 0.00 97 1056.0
20260906053230 21 342 1.6 3.2 0.00 0.00 0.00 97 1055.6
20260906052729 21 351 1.6 3.2 0.00 0.00 0.00 97 1056.0
20260906052229 21 12 1.6 3.2 0.00 0.00 0.00 97 1055.6
20260906051728 21 21 0.0 3.2 0.00 0.00 0.00 97 1056.0
20260906051228 21 27 1.6 3.2 0.00 0.00 0.00 97 1056.0
20260906050727 21 30 0.0 3.2 0.00 0.00 0.00 97 1056.0
20260906050227 21 357 1.6 3.2 0.00 0.00 0.00 97 1055.6
20260906045726 21 350 1.6 3.2 0.00 0.00 0.00 97 1055.6
20260906045453 21 354 1.6 3.2 0.00 0.00 0.00 97 1056.0
20260906044726 21 4 1.6 3.2 0.00 0.00 0.00 97 1056.0
20260906044226 22 356 0.0 3.2 0.00 0.00 0.00 97 1056.0
20260906043725 22 16 1.6 3.2 0.00 0.00 0.00 97 1056.0
20260906043224 22 16 1.6 3.2 0.00 0.00 0.00 97 1056.0
20260906042725 22 50 0.0 3.2 0.00 0.00 0.00 97 1056.0
20260906042224 22 135 0.0 3.2 0.00 0.00 0.00 97 1056.0
20260906041947 21 344 1.6 3.2 0.00 0.00 0.00 97 1056.0
20260906041446 21 346 0.0 3.2 0.00 0.00 0.00 97 1056.4
20260906040722 21 339 3.2 3.2 0.00 0.00 0.00 97 1056.7
20260906040223 21 344 1.6 3.2 0.00 0.00 0.00 97 1056.4
20260906035722 22 28 1.6 3.2 0.00 0.00 0.00 96 1056.0
20260906035222 21 2 0.0 1.6 0.00 0.00 0.00 96 1056.4
20260906034721 21 89 0.0 1.6 0.00 0.00 0.00 96 1056.0
20260906034702 22 87 0.0 3.2 0.00 0.00 0.00 96 1056.4
20260906033720 22 22 0.0 3.2 0.00 0.00 0.00 96 1056.4
20260906033220 22 351 3.2 3.2 0.00 0.00 0.00 96 1056.4
20260906032719 22 351 1.6 3.2 0.00 0.00 0.00 96 1056.4
20260906032220 22 39 0.0 4.8 0.00 0.00 0.00 96 1056.4
20260906031718 22 337 0.0 4.8 0.00 0.00 0.00 96 1056.4
20260906031438 22 333 3.2 3.2 0.00 0.00 0.00 96 1056.4
20260906030717 22 4 3.2 4.8 0.00 0.00 0.00 96 1056.4
20260906030218 22 5 1.6 4.8 0.00 0.00 0.00 96 1056.0
20260906025944 22 356 3.2 3.2 0.00 0.00 0.00 96 1056.7
20260906025216 22 8 1.6 3.2 0.00 0.00 0.00 96 1056.4
20260906024933 22 35 0.0 3.2 0.00 0.00 0.00 96 1056.4
20260906024216 22 355 3.2 3.2 0.00 0.00 0.00 96 1056.4
20260906023715 22 355 3.2 3.2 0.00 0.00 0.00 96 1056.0
20260906023658 22 350 3.2 3.2 0.00 0.00 0.00 96 1056.4
20260906022714 22 3 1.6 3.2 0.00 0.00 0.00 97 1056.4
20260906022214 22 55 0.0 3.2 0.00 0.00 0.00 96 1056.4
20260906021714 22 10 0.0 3.2 0.00 0.00 0.00 96 1056.0
20260906021213 22 358 3.2 3.2 0.00 0.00 0.00 97 1056.0
20260906020713 22 4 3.2 3.2 0.00 0.00 0.00 96 1056.0
20260906020433 22 117 0.0 3.2 0.00 0.00 0.00 96 1055.6
20260906015712 22 339 0.0 3.2 0.00 0.00 0.00 96 1056.4
20260906015212 22 3 3.2 3.2 0.00 0.00 0.00 96 1056.0
20260906014711 22 137 3.2 3.2 0.00 0.00 0.00 96 1055.6
20260906014211 22 164 1.6 3.2 0.00 0.00 0.00 96 1056.0
20260906013710 22 14 1.6 3.2 0.00 0.00 0.00 96 1056.0
20260906013210 22 352 1.6 3.2 0.00 0.00 0.00 96 1056.0
20260906012709 22 337 1.6 3.2 0.00 0.00 0.00 96 1055.6
20260906012209 22 5 1.6 3.2 0.00 0.00 0.00 96 1055.6
20260906011709 22 11 1.6 3.2 0.00 0.00 0.00 96 1056.0
20260906011208 22 353 3.2 3.2 0.00 0.00 0.00 95 1055.6
20260906010708 22 322 3.2 4.8 0.00 0.00 0.00 95 1055.3
20260906010207 22 40 0.0 4.8 0.00 0.00 0.00 95 1055.0
20260906005707 22 350 3.2 4.8 0.00 0.00 0.00 95 1055.3
20260906005644 22 335 4.8 4.8 0.00 0.00 0.00 95 1055.3
20260906004706 22 350 0.0 6.4 0.00 0.00 0.00 95 1055.3
20260906004206 21 64 0.0 6.4 0.00 0.00 0.00 95 1055.3
20260906003705 21 342 3.2 4.8 0.00 0.00 0.00 94 1055.3
20260906003204 22 340 3.2 6.4 0.00 0.00 0.00 93 1055.3
20260906002705 22 330 3.2 12.9 0.00 0.00 0.00 90 1055.0
20260906002204 22 325 6.4 12.9 0.00 0.00 0.00 90 1055.6
20260906001703 22 0 4.8 11.3 0.00 0.00 0.00 92 1055.6
20260906001204 22 193 3.2 27.4 0.00 0.00 0.00 92 1055.3
20260906000703 22 162 6.4 27.4 0.00 0.00 0.00 82 1055.6
20260906000426 24 213 6.4 17.7 0.00 0.00 0.00 83 1056.7
20260905235702 27 324 8.0 8.0 0.00 0.00 0.00 79 1055.6
20260905235201 27 312 1.6 3.2 0.00 0.00 0.00 73 1055.3
20260905234701 27 180 0.0 6.4 0.00 0.00 0.00 75 1055.3
20260905234201 27 353 0.0 8.0 0.00 0.00 0.00 78 1055.3
20260905233700 28 128 3.2 8.0 0.00 0.00 0.00 76 1055.3
20260905233200 29 58 1.6 3.2 0.00 0.00 0.00 73 1055.3
20260905232700 30 25 0.0 4.8 0.00 0.00 0.00 71 1055.0
20260905232159 31 129 0.0 4.8 0.00 0.00 0.00 68 1055.3
20260905231659 31 31 1.6 4.8 0.00 0.00 0.00 66 1055.3
20260905231419 31 347 3.2 3.2 0.00 0.00 0.00 64 1055.0
20260905230922 31 0 0.0 3.2 0.00 0.00 0.00 64 1054.6
20260905230157 31 50 0.0 3.2 0.00 0.00 0.00 62 1054.6
20260905225657 31 12 0.0 3.2 0.00 0.00 0.00 61 1055.0
20260905225157 31 44 0.0 3.2 0.00 0.00 0.00 60 1055.0
20260905224916 31 5 1.6 4.8 0.00 0.00 0.00 61 1055.0
20260905224156 31 13 1.6 4.8 0.00 0.00 0.00 62 1055.0
20260905223655 31 104 0.0 4.8 0.00 0.00 0.00 63 1055.0
20260905223154 31 48 0.0 6.4 0.00 0.00 0.00 63 1055.0
20260905222655 31 119 0.0 6.4 0.00 0.00 0.00 63 1055.0
20260905222154 31 32 0.0 4.8 0.00 0.00 0.00 64 1055.0
20260905221653 31 109 3.2 6.4 0.00 0.00 0.00 64 1055.0
20260905221153 31 119 1.6 6.4 0.00 0.00 0.00 64 1055.0
20260905220653 31 125 3.2 4.8 0.00 0.00 0.00 64 1055.0
20260905220152 31 92 1.6 6.4 0.00 0.00 0.00 64 1055.0
20260905215652 31 136 3.2 6.4 0.00 0.00 0.00 63 1055.0
20260905215151 31 175 3.2 4.8 0.00 0.00 0.00 62 1055.3
20260905214651 31 117 0.0 4.8 0.00 0.00 0.00 62 1055.0
20260905214408 31 151 3.2 4.8 0.00 0.00 0.00 62 1055.3
20260905213650 31 124 3.2 4.8 0.00 0.00 0.00 61 1055.6
20260905213149 31 128 0.0 6.4 0.00 0.00 0.00 62 1055.3
20260905212910 31 144 3.2 6.4 0.00 0.00 0.00 61 1055.3
20260905212149 31 38 3.2 6.4 0.00 0.00 0.00 62 1055.3
20260905211649 31 168 3.2 6.4 0.00 0.00 0.00 62 1055.3
20260905211148 31 119 3.2 8.0 0.00 0.00 0.00 61 1055.3
20260905210647 31 92 1.6 8.0 0.00 0.00 0.00 61 1055.3
20260905210148 31 173 3.2 8.0 0.00 0.00 0.00 63 1055.6
20260905205913 30 150 3.2 3.2 0.00 0.00 0.00 67 1055.6
20260905205147 30 173 1.6 6.4 0.00 0.00 0.00 67 1055.6
20260905204646 30 39 3.2 6.4 0.00 0.00 0.00 67 1055.6
20260905204146 30 154 4.8 8.0 0.00 0.00 0.00 67 1055.6
20260905203906 31 101 3.2 9.7 0.00 0.00 0.00 65 1056.0
20260905203145 32 148 8.0 8.0 0.00 0.00 0.00 60 1055.6
20260905202644 32 149 4.8 8.0 0.00 0.00 0.00 59 1055.6
20260905202143 32 141 6.4 8.0 0.00 0.00 0.00 61 1055.6
20260905201644 32 185 8.0 9.7 0.00 0.00 0.00 62 1055.6
20260905201143 31 180 6.4 11.3 0.00 0.00 0.00 61 1056.0
20260905200642 31 178 3.2 11.3 0.00 0.00 0.00 62 1056.0
20260905200143 32 153 6.4 9.7 0.00 0.00 0.00 61 1055.6
20260905195642 32 181 4.8 9.7 0.00 0.00 0.00 61 1055.6
20260905195406 32 84 4.8 9.7 0.00 0.00 0.00 59 1056.0
20260905194641 32 158 4.8 8.0 0.00 0.00 0.00 59 1056.0
20260905194359 31 146 0.0 11.3 0.00 0.00 0.00 63 1056.0
20260905193859 31 160 4.8 11.3 0.00 0.00 0.00 62 1056.4
20260905193140 31 170 8.0 11.3 0.00 0.00 0.00 63 1056.0
20260905192640 31 153 4.8 12.9 0.00 0.00 0.00 63 1056.7
20260905192140 31 120 4.8 14.5 0.00 0.00 0.00 65 1056.7
20260905191639 31 105 8.0 14.5 0.00 0.00 0.00 65 1056.7
20260905191138 31 148 6.4 19.3 0.00 0.00 0.00 65 1056.7
20260905190638 31 125 6.4 19.3 0.00 0.00 0.00 62 1057.1
20260905190138 32 138 3.2 9.7 0.00 0.00 0.00 58 1057.1
20260905185857 32 177 0.0 9.7 0.00 0.00 0.00 55 1056.7
20260905185136 32 86 1.6 9.7 0.00 0.00 0.00 57 1056.7
20260905184636 32 160 3.2 11.3 0.00 0.00 0.00 58 1056.7
20260905184358 32 119 4.8 11.3 0.00 0.00 0.00 58 1057.1
20260905183636 32 134 4.8 9.7 0.00 0.00 0.00 60 1056.7
20260905183135 32 205 3.2 9.7 0.00 0.00 0.00 60 1057.1
20260905182634 31 135 0.0 9.7 0.00 0.00 0.00 62 1057.1
20260905182134 31 202 4.8 9.7 0.00 0.00 0.00 62 1057.1
20260905181635 31 178 6.4 9.7 0.00 0.00 0.00 64 1057.1
20260905181133 30 118 3.2 9.7 0.00 0.00 0.00 64 1057.1
20260905180634 30 15 6.4 9.7 0.00 0.00 0.00 66 1057.4
20260905180133 30 83 4.8 9.7 0.00 0.00 0.00 66 1057.4
20260905175858 31 66 3.2 8.0 0.00 0.00 0.00 64 1057.8
20260905175132 31 141 4.8 4.8 0.00 0.00 0.00 64 1057.8
20260905174632 32 39 1.6 3.2 0.00 0.00 0.00 63 1057.8
20260905174131 32 253 1.6 4.8 0.00 0.00 0.00 64 1058.1
20260905173631 32 158 1.6 4.8 0.00 0.00 0.00 63 1058.1
20260905173130 32 124 1.6 3.2 0.00 0.00 0.00 64 1057.8
20260905172851 32 41 1.6 3.2 0.00 0.00 0.00 63 1057.8
20260905172129 32 349 3.2 4.8 0.00 0.00 0.00 61 1057.8
20260905171629 33 118 0.0 4.8 0.00 0.00 0.00 60 1057.8
20260905171128 33 154 1.6 6.4 0.00 0.00 0.00 59 1057.8
20260905170628 33 37 0.0 6.4 0.00 0.00 0.00 57 1057.8
20260905170128 35 109 3.2 6.4 0.00 0.00 0.00 54 1058.1
20260905170106 35 31 0.0 6.4 0.00 0.00 0.00 53 1058.1
20260905165127 36 358 3.2 6.4 0.00 0.00 0.00 51 1058.1
20260905164626 36 12 3.2 6.4 0.00 0.00 0.00 51 1058.1
20260905164126 36 124 4.8 4.8 0.00 0.00 0.00 52 1058.1
20260905163626 35 47 4.8 4.8 0.00 0.00 0.00 53 1058.1
20260905163125 35 17 3.2 6.4 0.00 0.00 0.00 55 1057.8
20260905162625 35 63 3.2 6.4 0.00 0.00 0.00 53 1058.1
20260905162124 35 352 3.2 6.4 0.00 0.00 0.00 54 1058.1
20260905162115 33 84 3.2 6.4 0.00 0.00 0.00 59 1058.1
20260905161603 33 136 3.2 8.0 0.00 0.00 0.00 58 1058.1
20260905160623 34 138 6.4 8.0 0.00 0.00 0.00 59 1058.1
20260905160123 32 131 3.2 6.4 0.00 0.00 0.00 62 1058.1
20260905155622 33 121 3.2 4.8 0.00 0.00 0.00 60 1058.1
20260905155122 34 134 3.2 6.4 0.00 0.00 0.00 58 1058.1
20260905154621 33 117 3.2 6.4 0.00 0.00 0.00 59 1058.1
20260905154121 33 112 1.6 4.8 0.00 0.00 0.00 60 1058.1
20260905153621 33 179 1.6 6.4 0.00 0.00 0.00 60 1058.1
20260905153120 32 351 3.2 8.0 0.00 0.00 0.00 65 1058.1
20260905152620 31 83 0.0 8.0 0.00 0.00 0.00 65 1058.1
20260905152119 32 148 0.0 6.4 0.00 0.00 0.00 64 1058.4
20260905151619 32 81 3.2 6.4 0.00 0.00 0.00 63 1058.1
20260905151119 31 359 3.2 3.2 0.00 0.00 0.00 64 1058.1
20260905150618 30 103 0.0 6.4 0.00 0.00 0.00 71 1058.1
20260905150118 31 119 0.0 6.4 0.00 0.00 0.00 68 1058.1
20260905145617 31 154 0.0 3.2 0.00 0.00 0.00 66 1058.1
20260905145116 31 119 0.0 3.2 0.00 0.00 0.00 68 1058.4
20260905144616 30 142 0.0 3.2 0.00 0.00 0.00 68 1058.4
20260905144121 30 3 1.6 3.2 0.00 0.00 0.00 70 1058.4
20260905143820 29 80 0.0 3.2 0.00 0.00 0.00 73 1058.4
20260905143705 30 50 0.0 3.2 0.00 0.00 0.00 70 1058.1
20260905142615 29 50 0.0 3.2 0.00 0.00 0.00 74 1058.4
20260905142115 28 130 0.0 3.2 0.00 0.00 0.00 73 1058.4
20260905141614 28 158 0.0 3.2 0.00 0.00 0.00 73 1058.4
20260905141113 28 108 0.0 3.2 0.00 0.00 0.00 74 1058.4
20260905140614 28 78 1.6 3.2 0.00 0.00 0.00 74 1058.4
20260905140113 28 155 3.2 4.8 0.00 0.00 0.00 73 1058.4
20260905135612 28 336 0.0 4.8 0.00 0.00 0.00 74 1058.4
20260905135112 27 120 0.0 6.4 0.00 0.00 0.00 75 1058.4
20260905134612 28 142 0.0 6.4 0.00 0.00 0.00 75 1058.4
20260905134111 28 146 1.6 4.8 0.00 0.00 0.00 77 1058.4
20260905133611 27 157 0.0 4.8 0.00 0.00 0.00 78 1058.4
20260905133111 27 52 0.0 4.8 0.00 0.00 0.00 79 1058.4
20260905133106 27 85 4.8 4.8 0.00 0.00 0.00 79 1058.4
20260905132330 26 147 0.0 3.2 0.00 0.00 0.00 82 1058.4
20260905131609 26 141 0.0 3.2 0.00 0.00 0.00 82 1058.8
20260905131109 26 93 0.0 3.2 0.00 0.00 0.00 82 1058.8
20260905130609 26 135 0.0 3.2 0.00 0.00 0.00 81 1058.8
20260905130108 27 98 1.6 3.2 0.00 0.00 0.00 79 1058.8
20260905125607 26 96 3.2 3.2 0.00 0.00 0.00 82 1058.8
20260905125337 26 89 0.0 4.8 0.00 0.00 0.00 83 1058.8
20260905124824 25 170 3.2 6.4 0.00 0.00 0.00 85 1058.8
20260905124325 25 150 3.2 6.4 0.00 0.00 0.00 87 1059.1
20260905123606 25 112 3.2 4.8 0.00 0.00 0.00 87 1058.8
20260905123105 25 140 0.0 4.8 0.00 0.00 0.00 87 1059.1
20260905122605 25 45 0.0 4.8 0.00 0.00 0.00 86 1058.8
20260905122104 25 14 1.6 4.8 0.00 0.00 0.00 85 1058.8
20260905121605 25 80 0.0 3.2 0.00 0.00 0.00 86 1058.4
20260905121104 24 96 0.0 4.8 0.00 0.00 0.00 89 1058.4
20260905120603 23 325 1.6 4.8 0.00 0.00 0.00 90 1058.4
20260905120103 23 329 1.6 4.8 0.00 0.00 0.00 91 1058.4
20260905115603 23 352 0.0 3.2 0.00 0.00 0.00 93 1058.4
20260905115102 22 306 0.0 3.2 0.00 0.00 0.00 93 1058.1
20260905115046 22 124 0.0 3.2 0.00 0.00 0.00 93 1058.1
20260905114101 22 89 1.6 3.2 0.00 0.00 0.00 93 1058.1
20260905113601 22 315 1.6 3.2 0.00 0.00 0.00 94 1057.8
20260905113321 22 4 1.6 4.8 0.00 0.00 0.00 94 1058.1
20260905112601 22 0 3.2 6.4 0.00 0.00 0.00 94 1057.8
20260905112100 22 347 3.2 6.4 0.00 0.00 0.00 94 1057.8
20260905111559 22 338 3.2 4.8 0.00 0.00 0.00 94 1057.8
20260905111058 22 315 0.0 3.2 0.00 0.00 0.00 94 1057.8
20260905110559 22 322 1.6 3.2 0.00 0.00 0.00 94 1057.8
20260905110058 22 341 1.6 3.2 0.00 0.00 0.00 94 1057.8
20260905105819 22 183 3.2 3.2 0.00 0.00 0.00 94 1057.8
20260905105057 22 311 0.0 3.2 0.00 0.00 0.00 94 1057.8
20260905104557 22 175 1.6 6.4 0.00 0.00 0.00 93 1057.4
20260905104056 22 23 3.2 6.4 0.00 0.00 0.00 93 1057.4
20260905103556 22 341 1.6 4.8 0.00 0.00 0.00 93 1057.4
20260905103055 22 15 0.0 4.8 0.00 0.00 0.00 93 1057.4
20260905102554 22 56 1.6 4.8 0.00 0.00 0.00 93 1057.4
20260905102055 22 269 1.6 4.8 0.00 0.00 0.00 93 1057.4
20260905101554 22 324 3.2 4.8 0.00 0.00 0.00 93 1057.4
20260905101053 22 356 1.6 4.8 0.00 0.00 0.00 93 1057.4
20260905100554 22 320 1.6 4.8 0.00 0.00 0.00 92 1057.4
20260905100053 22 304 1.6 6.4 0.00 0.00 0.00 92 1057.1
20260905095552 23 150 1.6 6.4 0.00 0.00 0.00 92 1057.1
20260905095052 22 337 4.8 6.4 0.00 0.00 0.00 92 1057.1
20260905094552 22 339 3.2 6.4 0.00 0.00 0.00 92 1057.1
20260905094052 23 174 1.6 8.0 0.00 0.00 0.00 92 1057.1
20260905093551 23 340 3.2 8.0 0.00 0.00 0.00 92 1056.7